Location: Fatehalanka
(16.3139°N, 80.8379°E)
Time: 14:08:11
(UTC+00:00)

H-2A R/B - Pass Details

Date: 14 May 2026
Orbit: 550 x 611 km, 98.5° (Epoch: 11 June)

Event Time Altitude Azimuth Distance (km) Brightness Sun altitude
Rises 22:22:34 0° 10° (N) 2,733 5.9 -23.5°
Reaches altitude 10° 22:24:41 10° 9° (N) 1,844 5.0 -23.1°
Maximum altitude 22:28:40 80° 283° (WNW) 577 1.7 -22.2°
Enters shadow 22:28:52 77° 239° (WSW) 584 1.7 -22.2°
